Location: Borovka
(49.7741°N, 14.5280°E)
Time: 02:13:38
(UTC+00:00)

ESTCUBE 1 - Pass Details

Date: 16 March 2026
Orbit: 620 x 631 km, 97.7° (Epoch: 13 April)

Event Time Altitude Azimuth Distance (km) Brightness Sun altitude
Exits shadow 20:40:27 24° 277° (W) 1,298 ? -32.1°
Drops below altitude 10° 20:43:37 10° 323° (NW) 2,016 ? -32.5°
Sets 20:46:11 0° 337° (NNW) 2,931 ? -32.8°
